JUGNU (37839 NORAD) Tracking and Keplerian Element Data

This shows tracking and keplerian element data for the satellite.

Feedback or suggestion? Click here.




ElementValue
Catalog37839
NameJUGNU
Epoch Orbit67226
Epoch Day286.73289176
Epoch Year2024
RAAN68.3478
Inclination19.9609
Eccentricity0.0018649
Argument of Perigee153.4874
Mean Anonmoly234.8146
Mean Motion14.13363671
Decay Rate1.219E-05
L11 37839U 11058B 24286.73289176 .00001219 00000+0 49904-3 0 9991
L22 37839 19.9609 68.3478 0018649 153.4874 234.8146 14.13363671672268



Live tracking and technical data element details for JUGNU (NORAD 37839). JUGNU can be tracked NOW for your location showing map with azimuth and elevation plus other details from your city location.







IsCatalogInMostPopularTable: catalog: 37839, numindb: 406
Update: records affected: 1



GetName: 37839 JUGNU

Hit Count: updated at: Thu, 23 Jan 2025 17:35:04 GMT